Location: Arbon
(43.0005°N, 0.7472°E)
Time: 00:42:39
(UTC+00:00)

Vanguard 3 - Pass Details

Date: 26 November 2020
Orbit: 508 x 3262 km, 33.3° (Epoch: 22 January)

Event Time Altitude Azimuth Distance (km) Brightness Sun altitude
Exits shadow 04:12:21 15° 209° (SSW) 3,915 10.3 -30.8°
Maximum altitude 04:12:49 15° 206° (SSW) 3,961 10.4 -30.7°
Drops below altitude 10° 04:19:09 10° 178° (S) 4,958 11.2 -29.5°
Sets 04:26:39 0° 160° (SSE) 6,554 12.1 -28.1°
